Time,TemperatureF,DewpointF,PressureIn,WindDirection,WindDirectionDegrees,WindSpeedMPH,WindSpeedGustMPH,Humidity,HourlyPrecipIn,Conditions,Clouds,dailyrainin,SoftwareType,DateUTC
2013-01-09 00:03:00,36.7,28.0,29.90,SW,215,17.0,25.0,72,0.00,,,0.00,weatherlink.com 1.10,2013-01-09 05:03:00,
2013-01-09 00:18:00,36.8,28.0,29.88,SW,214,15.0,29.0,71,0.00,,,0.00,weatherlink.com 1.10,2013-01-09 05:18:00,
2013-01-09 00:33:00,36.8,28.0,29.89,SSW,204,12.0,22.0,71,0.00,,,0.00,weatherlink.com 1.10,2013-01-09 05:33:00,
2013-01-09 00:48:00,37.1,28.0,29.88,SSW,210,16.0,29.0,70,0.00,,,0.00,weatherlink.com 1.10,2013-01-09 05:48:00,
2013-01-09 01:04:00,36.8,28.0,29.88,SW,219,13.0,29.0,70,0.00,,,0.00,weatherlink.com 1.10,2013-01-09 06:04:00,
2013-01-09 01:19:00,36.5,28.0,29.86,SSW,200,17.0,27.0,71,0.00,,,0.00,weatherlink.com 1.10,2013-01-09 06:19:00,
2013-01-09 01:34:00,36.6,28.0,29.85,SSW,207,9.0,22.0,71,0.00,,,0.00,weatherlink.com 1.10,2013-01-09 06:34:00,
2013-01-09 01:49:00,36.8,28.0,29.83,SSW,210,17.0,23.0,70,0.00,,,0.00,weatherlink.com 1.10,2013-01-09 06:49:00,
2013-01-09 02:04:00,37.3,28.0,29.83,SSW,202,20.0,24.0,69,0.00,,,0.00,weatherlink.com 1.10,2013-01-09 07:04:00,
2013-01-09 02:19:00,37.3,28.0,29.82,SSW,197,11.0,23.0,70,0.00,,,0.00,weatherlink.com 1.10,2013-01-09 07:19:00,
2013-01-09 02:34:00,37.4,28.0,29.82,SSW,201,19.0,22.0,69,0.00,,,0.00,weatherlink.com 1.10,2013-01-09 07:34:00,
2013-01-09 02:49:00,37.5,28.0,29.81,SSW,208,17.0,23.0,69,0.00,,,0.00,weatherlink.com 1.10,2013-01-09 07:49:00,
2013-01-09 03:04:00,37.5,29.0,29.80,SSW,209,8.0,19.0,70,0.00,,,0.00,weatherlink.com 1.10,2013-01-09 08:04:00,
2013-01-09 03:19:00,37.7,29.0,29.80,SW,217,14.0,23.0,70,0.00,,,0.00,weatherlink.com 1.10,2013-01-09 08:19:00,
2013-01-09 03:34:00,37.8,29.0,29.80,SSW,211,12.0,20.0,71,0.00,,,0.00,weatherlink.com 1.10,2013-01-09 08:34:00,
2013-01-09 03:49:00,37.9,29.0,29.79,SSW,211,21.0,22.0,71,0.00,,,0.00,weatherlink.com 1.10,2013-01-09 08:49:00,
2013-01-09 04:04:00,37.8,30.0,29.78,SW,217,13.0,20.0,72,0.00,,,0.00,weatherlink.com 1.10,2013-01-09 09:04:00,
2013-01-09 04:19:00,38.0,30.0,29.77,SSW,208,12.0,20.0,73,0.00,,,0.00,weatherlink.com 1.10,2013-01-09 09:19:00,
2013-01-09 04:34:00,38.2,31.0,29.78,SW,215,18.0,21.0,74,0.00,,,0.00,weatherlink.com 1.10,2013-01-09 09:34:00,
2013-01-09 04:49:00,38.5,32.0,29.78,WSW,241,16.0,20.0,76,0.00,,,0.00,weatherlink.com 1.10,2013-01-09 09:49:00,
2013-01-09 05:04:00,38.8,32.0,29.77,SW,222,17.0,22.0,77,0.00,,,0.00,weatherlink.com 1.10,2013-01-09 10:04:00,
2013-01-09 05:19:00,38.7,33.0,29.76,SW,215,14.0,22.0,79,0.00,,,0.00,weatherlink.com 1.10,2013-01-09 10:19:00,
2013-01-09 05:34:00,39.0,33.0,29.75,SW,228,16.0,21.0,79,0.00,,,0.00,weatherlink.com 1.10,2013-01-09 10:34:00,
2013-01-09 05:49:00,39.4,33.0,29.75,WSW,238,20.0,22.0,79,0.00,,,0.00,weatherlink.com 1.10,2013-01-09 10:49:00,
2013-01-09 06:04:00,39.5,34.0,29.75,SW,234,17.0,22.0,79,0.00,,,0.00,weatherlink.com 1.10,2013-01-09 11:04:00,
2013-01-09 06:19:00,39.5,34.0,29.75,SW,226,12.0,19.0,79,0.00,,,0.00,weatherlink.com 1.10,2013-01-09 11:19:00,
2013-01-09 06:34:00,39.6,34.0,29.75,SW,229,12.0,21.0,79,0.00,,,0.00,weatherlink.com 1.10,2013-01-09 11:34:00,
2013-01-09 06:49:00,39.6,34.0,29.75,SW,219,12.0,17.0,80,0.00,,,0.00,weatherlink.com 1.10,2013-01-09 11:49:00,
2013-01-09 07:04:00,39.7,34.0,29.76,West,273,11.0,22.0,81,0.00,,,0.00,weatherlink.com 1.10,2013-01-09 12:04:00,
2013-01-09 07:19:00,39.8,34.0,29.77,West,259,12.0,31.0,81,0.00,,,0.00,weatherlink.com 1.10,2013-01-09 12:19:00,
2013-01-09 07:34:00,39.3,34.0,29.77,WNW,289,15.0,24.0,82,0.00,,,0.00,weatherlink.com 1.10,2013-01-09 12:34:00,
2013-01-09 07:49:00,39.0,34.0,29.78,West,276,13.0,32.0,82,0.00,,,0.00,weatherlink.com 1.10,2013-01-09 12:49:00,
2013-01-09 08:04:00,38.9,34.0,29.79,WNW,287,16.0,28.0,82,0.00,,,0.00,weatherlink.com 1.10,2013-01-09 13:04:00,
2013-01-09 08:19:00,38.7,33.0,29.80,WNW,290,17.0,23.0,80,0.00,,,0.00,weatherlink.com 1.10,2013-01-09 13:19:00,
2013-01-09 08:34:00,38.4,33.0,29.80,West,260,13.0,24.0,81,0.00,,,0.00,weatherlink.com 1.10,2013-01-09 13:34:00,
2013-01-09 08:49:00,38.5,33.0,29.82,West,281,18.0,26.0,81,0.00,,,0.00,weatherlink.com 1.10,2013-01-09 13:49:00,
2013-01-09 09:04:00,38.6,33.0,29.83,WNW,292,18.0,32.0,81,0.00,,,0.00,weatherlink.com 1.10,2013-01-09 14:04:00,
2013-01-09 09:19:00,38.4,33.0,29.83,West,261,16.0,29.0,82,0.00,,,0.00,weatherlink.com 1.10,2013-01-09 14:19:00,
2013-01-09 09:34:00,38.0,33.0,29.83,West,264,25.0,32.0,81,0.00,,,0.00,weatherlink.com 1.10,2013-01-09 14:34:00,
2013-01-09 09:49:00,37.8,32.0,29.83,WSW,252,15.0,28.0,81,0.00,,,0.00,weatherlink.com 1.10,2013-01-09 14:49:00,
2013-01-09 10:04:00,37.8,32.0,29.83,WNW,286,22.0,28.0,80,0.00,,,0.00,weatherlink.com 1.10,2013-01-09 15:04:00,
2013-01-09 10:19:00,38.1,32.0,29.83,WSW,252,18.0,31.0,79,0.00,,,0.00,weatherlink.com 1.10,2013-01-09 15:19:00,
2013-01-09 10:34:00,38.0,32.0,29.83,West,276,23.0,26.0,79,0.00,,,0.00,weatherlink.com 1.10,2013-01-09 15:34:00,
2013-01-09 10:49:00,38.2,32.0,29.83,West,273,15.0,25.0,79,0.00,,,0.00,weatherlink.com 1.10,2013-01-09 15:49:00,
2013-01-09 11:04:00,38.2,32.0,29.83,West,271,14.0,27.0,79,0.00,,,0.00,weatherlink.com 1.10,2013-01-09 16:04:00,
2013-01-09 11:19:00,38.0,32.0,29.83,SW,236,13.0,28.0,80,0.00,,,0.00,weatherlink.com 1.10,2013-01-09 16:19:00,
2013-01-09 11:34:00,37.8,32.0,29.84,WSW,253,25.0,30.0,81,0.00,,,0.00,weatherlink.com 1.10,2013-01-09 16:34:00,
2013-01-09 11:50:00,37.8,33.0,29.84,West,271,16.0,32.0,82,0.00,,,0.00,weatherlink.com 1.10,2013-01-09 16:50:00,
2013-01-09 12:05:00,37.5,32.0,29.85,WNW,287,24.0,41.0,80,0.00,,,0.00,weatherlink.com 1.10,2013-01-09 17:05:00,
2013-01-09 12:20:00,37.1,31.0,29.86,WNW,300,17.0,34.0,77,0.00,,,0.00,weatherlink.com 1.10,2013-01-09 17:20:00,
2013-01-09 12:35:00,37.0,30.0,29.85,West,261,28.0,35.0,77,0.00,,,0.00,weatherlink.com 1.10,2013-01-09 17:35:00,
2013-01-09 12:50:00,37.1,30.0,29.86,West,275,30.0,34.0,76,0.00,,,0.00,weatherlink.com 1.10,2013-01-09 17:50:00,
2013-01-09 13:05:00,37.0,31.0,29.87,West,267,17.0,29.0,78,0.00,,,0.00,weatherlink.com 1.10,2013-01-09 18:05:00,
2013-01-09 13:20:00,37.2,31.0,29.88,West,272,30.0,32.0,77,0.00,,,0.00,weatherlink.com 1.10,2013-01-09 18:20:00,
2013-01-09 13:35:00,37.3,30.0,29.89,WNW,292,16.0,33.0,76,0.00,,,0.00,weatherlink.com 1.10,2013-01-09 18:35:00,
2013-01-09 13:50:00,37.5,31.0,29.89,WNW,290,26.0,34.0,76,0.00,,,0.00,weatherlink.com 1.10,2013-01-09 18:50:00,
2013-01-09 14:05:00,37.6,30.0,29.91,West,277,21.0,30.0,75,0.00,,,0.00,weatherlink.com 1.10,2013-01-09 19:05:00,
2013-01-09 14:20:00,37.7,30.0,29.92,WNW,286,30.0,31.0,74,0.00,,,0.00,weatherlink.com 1.10,2013-01-09 19:20:00,
2013-01-09 14:35:00,37.9,30.0,29.93,West,273,22.0,30.0,73,0.00,,,0.00,weatherlink.com 1.10,2013-01-09 19:35:00,
2013-01-09 14:50:00,38.0,29.0,29.93,WNW,295,25.0,33.0,71,0.00,,,0.00,weatherlink.com 1.10,2013-01-09 19:50:00,
2013-01-09 15:05:00,38.1,29.0,29.95,NW,306,26.0,37.0,70,0.00,,,0.00,weatherlink.com 1.10,2013-01-09 20:05:00,
2013-01-09 15:20:00,37.9,29.0,29.97,NW,309,24.0,37.0,69,0.00,,,0.00,weatherlink.com 1.10,2013-01-09 20:20:00,
2013-01-09 15:35:00,37.8,27.0,29.99,NW,308,19.0,34.0,65,0.00,,,0.00,weatherlink.com 1.10,2013-01-09 20:35:00,
2013-01-09 15:50:00,37.8,27.0,30.00,WNW,284,11.0,32.0,66,0.00,,,0.00,weatherlink.com 1.10,2013-01-09 20:50:00,
2013-01-09 16:05:00,37.8,28.0,30.02,NW,309,15.0,26.0,67,0.00,,,0.00,weatherlink.com 1.10,2013-01-09 21:05:00,
2013-01-09 16:20:00,37.8,27.0,30.04,NW,308,15.0,31.0,66,0.00,,,0.00,weatherlink.com 1.10,2013-01-09 21:20:00,
2013-01-09 16:35:00,37.7,27.0,30.05,WNW,297,27.0,35.0,66,0.00,,,0.00,weatherlink.com 1.10,2013-01-09 21:35:00,
2013-01-09 16:50:00,37.6,27.0,30.07,WNW,298,18.0,28.0,67,0.00,,,0.00,weatherlink.com 1.10,2013-01-09 21:50:00,
2013-01-09 17:05:00,37.5,27.0,30.09,NW,318,14.0,29.0,66,0.00,,,0.00,weatherlink.com 1.10,2013-01-09 22:05:00,
2013-01-09 17:20:00,37.5,28.0,30.10,NW,305,14.0,27.0,68,0.00,,,0.00,weatherlink.com 1.10,2013-01-09 22:20:00,
2013-01-09 17:35:00,37.8,28.0,30.11,NW,305,17.0,28.0,68,0.00,,,0.00,weatherlink.com 1.10,2013-01-09 22:35:00,
2013-01-09 17:50:00,38.0,28.0,30.13,WNW,301,27.0,30.0,68,0.00,,,0.00,weatherlink.com 1.10,2013-01-09 22:50:00,
2013-01-09 18:05:00,38.1,28.0,30.14,NW,311,21.0,30.0,67,0.00,,,0.00,weatherlink.com 1.10,2013-01-09 23:05:00,
2013-01-09 18:20:00,38.0,27.0,30.16,WNW,300,23.0,32.0,66,0.00,,,0.00,weatherlink.com 1.10,2013-01-09 23:20:00,
2013-01-09 18:35:00,37.9,27.0,30.17,NW,304,18.0,29.0,65,0.00,,,0.00,weatherlink.com 1.10,2013-01-09 23:35:00,
2013-01-09 18:50:00,37.8,27.0,30.19,NW,311,14.0,25.0,66,0.00,,,0.00,weatherlink.com 1.10,2013-01-09 23:50:00,
2013-01-09 19:05:00,37.9,28.0,30.21,NNW,332,18.0,28.0,67,0.00,,,0.00,weatherlink.com 1.10,2013-01-10 00:05:00,
2013-01-09 19:20:00,37.9,27.0,30.23,WNW,301,28.0,30.0,65,0.00,,,0.00,weatherlink.com 1.10,2013-01-10 00:20:00,
2013-01-09 19:36:00,37.7,27.0,30.24,NW,317,15.0,31.0,65,0.00,,,0.00,weatherlink.com 1.10,2013-01-10 00:36:00,
2013-01-09 19:51:00,37.5,27.0,30.26,NW,312,20.0,34.0,65,0.00,,,0.00,weatherlink.com 1.10,2013-01-10 00:51:00,
2013-01-09 20:06:00,37.2,26.0,30.26,WNW,303,22.0,31.0,65,0.00,,,0.00,weatherlink.com 1.10,2013-01-10 01:06:00,
2013-01-09 20:20:00,37.1,26.0,30.27,NNW,336,19.0,28.0,64,0.00,,,0.00,weatherlink.com 1.10,2013-01-10 01:20:00,
2013-01-09 20:36:00,37.0,27.0,30.27,NNW,329,13.0,25.0,68,0.00,,,0.00,weatherlink.com 1.10,2013-01-10 01:36:00,
2013-01-09 20:50:00,36.9,26.0,30.28,NW,309,20.0,29.0,66,0.00,,,0.00,weatherlink.com 1.10,2013-01-10 01:50:00,
2013-01-09 21:05:00,36.8,26.0,30.29,NNW,344,22.0,33.0,66,0.00,,,0.00,weatherlink.com 1.10,2013-01-10 02:05:00,
2013-01-09 21:20:00,36.8,27.0,30.29,NNW,333,19.0,29.0,69,0.00,,,0.00,weatherlink.com 1.10,2013-01-10 02:20:00,
2013-01-09 21:35:00,36.8,27.0,30.29,NW,311,15.0,28.0,69,0.00,,,0.00,weatherlink.com 1.10,2013-01-10 02:35:00,
2013-01-09 21:50:00,36.8,28.0,30.30,NW,322,17.0,24.0,70,0.00,,,0.00,weatherlink.com 1.10,2013-01-10 02:50:00,
2013-01-09 22:05:00,36.6,28.0,30.31,WNW,302,10.0,23.0,71,0.00,,,0.00,weatherlink.com 1.10,2013-01-10 03:05:00,
2013-01-09 22:21:00,36.6,28.0,30.32,NW,323,15.0,22.0,72,0.00,,,0.00,weatherlink.com 1.10,2013-01-10 03:21:00,
2013-01-09 22:35:00,36.5,29.0,30.33,NW,318,15.0,18.0,73,0.00,,,0.00,weatherlink.com 1.10,2013-01-10 03:35:00,
2013-01-09 22:50:00,36.6,28.0,30.33,WNW,301,18.0,25.0,72,0.00,,,0.00,weatherlink.com 1.10,2013-01-10 03:50:00,
2013-01-09 23:05:00,36.7,28.0,30.35,WNW,298,7.0,21.0,72,0.00,,,0.00,weatherlink.com 1.10,2013-01-10 04:05:00,
2013-01-09 23:20:00,36.9,28.0,30.35,NW,313,16.0,22.0,70,0.00,,,0.00,weatherlink.com 1.10,2013-01-10 04:20:00,
2013-01-09 23:35:00,36.8,28.0,30.36,NNW,330,12.0,21.0,71,0.00,,,0.00,weatherlink.com 1.10,2013-01-10 04:35:00,
2013-01-09 23:50:00,36.7,28.0,30.36,NNW,329,8.0,22.0,70,0.00,,,0.00,weatherlink.com 1.10,2013-01-10 04:50:00,